Preview of NWS' New Version of Forecast
This preview is not operational and should not be used for support decisions.

Regional Weather Roundup (RWR)

Issued by National Weather Service (NWS)

                            
000
ASUS43 KBIS 190802
RWRND 

NORTH DAKOTA REGIONAL WEATHER ROUNDUP
NATIONAL WEATHER SERVICE BISMARCK ND
300 AM CDT SUN MAY 19 2019

NOTE: "FAIR" INDICATES FEW OR NO CLOUDS BELOW 12,000 FEET WITH NO
SIGNIFICANT WEATHER AND/OR OBSTRUCTIONS TO VISIBILITY.


NDZ001>003-009>011-017-190900-
NORTHWEST NORTH DAKOTA
  
CITY           SKY/WX    TMP DP  RH WIND       PRES   REMARKS
WILLISTON      CLOUDY    40  30  67 N10       30.12                   
MINOT          MOCLDY    41  29  62 N13       30.06F                  
MINOT AFB      CLOUDY    40  28  62 N14       30.06F                  
$$
 
NDZ018>021-031>035-040>046-190900-
SOUTHWEST NORTH DAKOTA
  
CITY           SKY/WX    TMP DP  RH WIND       PRES   REMARKS
BISMARCK       LGT RAIN  39  36  89 NE14G21   30.00S                  
DICKINSON      CLOUDY    35  31  85 W3        30.01                   
GARRISON         N/A     42  27  55 NE13G23   30.02F                  
HETTINGER ARPT LGT SNOW  32  31  96 N8        30.01S FOG              
$$
 
NDZ004>008-012>016-024-026-027-054-190900-
NORTHEAST NORTH DAKOTA
  
CITY           SKY/WX    TMP DP  RH WIND       PRES   REMARKS
GRAND FORKS    CLOUDY    46  27  47 NE22      29.97F                  
GRND FRKS AFB  CLOUDY    46  27  46 NE12      30.00F                  
DEVILS LAKE    CLOUDY    43  26  51 NE16      30.01F                  
$$
 
NDZ022-023-025-028>030-036>039-047>053-190900-
SOUTHEAST NORTH DAKOTA
  
CITY           SKY/WX    TMP DP  RH WIND       PRES   REMARKS
FARGO          LGT RAIN  43  40  89 NE15G21   29.91F                  
JAMESTOWN      LGT RAIN  40  37  89 NE12      29.93F                  
$$